DMSP 5D-2 F13 DEB, 40564

Orbit data source: Space-Track

DMSP 5D-2 F13 DEB, 40564 is space debris in SSO originally from a launch on Fri, 24 Mar 1995 UTC launched from the Air Force Western Test Range (AFWTR). Debris objects in space refer to the collection of defunct objects orbiting the Earth. Examples of debris include non-operational satellites, rocket bodies, and fragments generated from explosions, collisions, or faulty payload assembly.

Loading next visibility...
Identifier
40564, 1995-015DX
Orbit
SSO
Country
Flag of USUS
Related business
Manufacturer
Unknown
Mission
Spacecraft
Bus & Motor
Unknown
Mass
Unknown
Launch date (UTC)
1995-03-24 (31 years ago)
Launch vehicle
Unknown
Launch site
Air Force Western Test Range (AFWTR)
Object type
Payload
Rocket body
Debris
Shape & HBR
Unknown shape, 0.1 m
Radar Cross Section
Small (<0.1 m²)

Expand to show TLE details & history
Last TLE update: 1 day ago

TLE from 1 day ago
0 DMSP 5D-2 F13 DEB
1 40564U 95015DX  25348.67127842  .00028027  00000-0  37330-2 0  9995
2 40564  98.6451  68.9909 0010430 333.1297  26.9371 14.79571896559577
Epoch: 2025-12-14T16:06Z
TLE epoch observation values (Epoch: 2025-12-14T16:06:38.455Z)
Latitude
-0.00002°
Longitude
103.74982°
Altitude
627.156 km
Speed
7.548 km/s
True Right ascension
04h 35m 57s
True Declination
0° 00' 00"
Sunlit
Object was in full shadow at epoch
Visualization orbit readout
Latitude
Unknown
Longitude
Unknown
Altitude
Unknown
Speed
Unknown
Apparent Right ascension
Unknown
Apparent Declination
Unknown
Sunlit
N/A
Visualization observer readout
Local Sidereal Time
00:54:56
Azimuth
Unknown
Elevation
Unknown
Doppler factor
Unknown
Orbital elements
Apogee altitude
635.059 km
Perigee altitude
620.445 km
Semi-major axis
7,005.889 km
Eccentricity
0.00104
Inclination
98.6451°
RAAN
68.9909°
Arg. of periapsis
333.1297°
True anomaly
26.99131°
Mean anomaly
26.9371°
Eccentric anomaly
26.9642°
Mean motion
3.70125 °/min
Orbital period
97.26 mins
BSTAR
0.003733
Loading maneuver chart data...
Computing Atmospheric mass density...

Documentation

Showing up to 5 results
|